Back to catalog

SKYSAT C2

AliveScienceSSO
NORAD 41773·PAYLOAD·🇺🇸 United States

Launched Sep 16, 2016 from Guiana Space Centre

Loading…

Next Passes (next 24 hours)

TLE

FreshSource: CelesTrak SupGP

Epoch: Sep 14, 2026, 14:49 UTC

1 41773C 16058D   26257.61777778  .00003711  00000+0  82017-4 0  2574
2 41773  97.0146 276.4494 0005002  88.7219 233.0354 15.43873998    17

Track SKYSAT C2 in real time with AllMySat

Download on the App Store